Location: The Saddle
(36.8333°N, 80.3417°W)
Time: 07:18:25
(UTC-05:00)

A-11 Canister half - Pass Details

Date: 15 December 2023
Orbit: 1512 x 1687 km, 47.2° (Epoch: 27 February)

Event Time Altitude Azimuth Distance (km) Brightness Sun altitude
Rises 22:35:57 0° 257° (WSW) 4,669 11.8 -64.5°
Enters shadow 22:37:35 - 259° (W) 4,153 11.5 -64.8°
Reaches altitude 10° 22:39:02 10° 262° (W) 3,703 - -65.0°
Maximum altitude 22:48:14 58° 340° (NNW) 1,796 - -66.7°
Drops below altitude 10° 22:57:48 10° 58° (ENE) 3,837 - -68.3°
Sets 23:01:05 0° 63° (ENE) 4,849 - -68.8°
